Regional Weather Roundup
Issued by NWS

Home | Current Version | Previous Version | Graphics & Text | Print | Product List | Glossary On
Versions: 1 2 3 4 5 6 7 8 9 10 11 12 13 14 15 16 17 18 19 20 21 22 23 24 25 26 27 28 29 30 31 32 33 34 35 36 37 38 39 40 41 42 43 44 45 46 47 48 49 50
000
ASUS43 KIND 181209
RWRIN

WEATHER ROUNDUP FOR INDIANA
NATIONAL WEATHER SERVICE INDIANAPOLIS IN
800 AM EDT SAT APR 18 2015

NOTE: "FAIR" INDICATES FEW OR NO CLOUDS BELOW 12,000 FEET WITH NO
SIGNIFICANT WEATHER AND/OR OBSTRUCTIONS TO VISIBILITY.

* - STATION DOES NOT REPORT WEATHER SUCH AS PRECIPITATION OR FOG.

+ - STATION NOT QUALITY CONTROLLED BY THE NATIONAL WEATHER SERVICE.
    USE DATA WITH CAUTION...ESPECIALLY DEWPOINT AND RELATIVE
    HUMIDITY OBSERVATIONS.

INZ001>003-010>013-019-020-181300-
NORTHWEST INDIANA

CITY           SKY/WX    TMP DP  RH WIND       PRES   REMARKS
GARY /AIRPORT/ PTCLDY    55  45  67 SW5       30.05R
KNOX *+        CLEAR     48  37  66 CALM      30.04R
MICHIGAN CITY+ CLEAR     55  43  62 CALM      30.05R
MONTICELLO +   CLEAR     50  50  98 CALM      30.04S
6HR MIN TEMP:  47; 6HR MAX TEMP:  54;

RENSSELAER +   PTCLDY    52  50  93 CALM      30.05R
VALPARAISO     CLEAR     56  46  69 CALM      30.05R
6HR MIN TEMP:  53; 6HR MAX TEMP:  60;


$$

LMZ046-743>745-181300-
SOUTHERN LAKE MICHIGAN

STATION/POSITION TIME  TEMP WIND        PRES
                       AIR  DIR/SP/G
                 (UTC) (F)  (DEG/KT/KT) (MB)
BURNS HARBOR     1200   61  210/  7/  9 1017.9R
MICHIGAN CITY    1200   62  180/  7/  8   N/A
4NW MICH CITY    1200   51                N/A

$$

INZ004-005-014>016-021>024-181300-
NORTH CENTRAL INDIANA

CITY           SKY/WX    TMP DP  RH WIND       PRES   REMARKS
ELKHART        MOSUNNY   50  45  81 CALM      30.06
GOSHEN         SUNNY     51  46  83 S3        30.05R
6HR MIN TEMP:  49; 6HR MAX TEMP:  55;

LOGANSPORT +   CLEAR     50  46  87 CALM      30.06S
PERU/GRISSOM   SUNNY     53  46  77 CALM      30.05R
6HR MIN TEMP:  52; 6HR MAX TEMP:  57;

ROCHESTER +    SUNNY     52  48  87 CALM      30.06R
SOUTH BEND     SUNNY     57  45  64 SW5       30.06R
6HR MIN TEMP:  53; 6HR MAX TEMP:  58;

WARSAW +       MOSUNNY   52  46  82 CALM      30.06R

$$

INZ006>009-017-018-025>027-181300-
NORTHEAST INDIANA

CITY           SKY/WX    TMP DP  RH WIND       PRES   REMARKS
ANGOLA *+      MOSUNNY   52  48  87 CALM      30.05R
AUBURN +       SUNNY     52  45  76 CALM      30.06R
FORT WAYNE     MOSUNNY   52  47  83 SW3       30.07R
6HR MIN TEMP:  49; 6HR MAX TEMP:  57;

HUNTINGTON +   SUNNY     51  45  79 CALM      30.06R
6HR MIN TEMP:  49; 6HR MAX TEMP:  55;


$$

INZ028-029-035-036-043>045-051>053-181300-
WEST CENTRAL INDIANA

CITY           SKY/WX    TMP DP  RH WIND       PRES   REMARKS
CRAWFORDSVL +  CLEAR     50  44  78 CALM      30.06R
6HR MIN TEMP:  47; 6HR MAX TEMP:  51;

GREENCASTLE +  CLEAR     52  43  71 CALM      30.06R
LAFAYETTE      CLEAR     49  46  90 CALM      30.05R
6HR MIN TEMP:  47; 6HR MAX TEMP:  53;

TERRE HAUTE    CLEAR     50  48  93 CALM      30.04R
6HR MIN TEMP:  48; 6HR MAX TEMP:  55;


$$

INZ030>032-037>040-046>048-054>057-064-065-181300-
CENTRAL INDIANA

CITY           SKY/WX    TMP DP  RH WIND       PRES   REMARKS
CP ATTERBURY + CLEAR     46  45  93 CALM      30.06R
FISHERS *+     SUNNY     48  48 100 CALM      30.06R
FRANKFORT +    CLEAR     50  47  87 CALM      30.06S
6HR MIN TEMP:  48; 6HR MAX TEMP:  53;

GREENWOOD *+   CLEAR     54  41  62 CALM      30.06R
INDIANAPOLIS   PTCLDY    54  47  77 CALM      30.05R
6HR MIN TEMP:  51; 6HR MAX TEMP:  57;

-EAGLE CREEK   CLEAR     54  49  83 CALM      30.05R
6HR MIN TEMP:  49; 6HR MAX TEMP:  57;

KOKOMO *+      SUNNY     50  46  87 CALM      30.06R
6HR MIN TEMP:  48; 6HR MAX TEMP:  54;

MARION +       SUNNY     50  44  82 CALM      30.07R
MT COMFORT *+  SUNNY     48 N/A N/A CALM      30.07R
SHELBYVILLE    SUNNY     53  46  77 E6        30.05R
6HR MIN TEMP:  49; 6HR MAX TEMP:  57;

ZIONSVILLE +   CLEAR     51  47  84 CALM      30.07R
6HR MIN TEMP:  48; 6HR MAX TEMP:  53;


$$

INZ033-034-041-042-049-050-058-059-181300-
EAST CENTRAL INDIANA

CITY           SKY/WX    TMP DP  RH WIND       PRES   REMARKS
MUNCIE         SUNNY     51  46  83 CALM      30.06R
6HR MIN TEMP:  49; 6HR MAX TEMP:  54;


$$

INZ060-061-067>069-081>083-085>088-181300-
SOUTHWEST INDIANA

CITY           SKY/WX    TMP DP  RH WIND       PRES   REMARKS
EVANSVILLE     CLOUDY    57  54  89 CALM      30.03F FOG
6HR MIN TEMP:  55; 6HR MAX TEMP:  61;

HUNTINGBURG *+ MOCLDY    54  50  87 CALM      30.04S VSB 1
6HR MIN TEMP:  54; 6HR MAX TEMP:  59;

WASHINGTON +   CLEAR     54  50  87 CALM      30.04R FOG
6HR MIN TEMP:  51; 6HR MAX TEMP:  57;


$$

INZ062-063-066-070>080-084-089>092-181300-
SOUTH CENTRAL AND SOUTHEAST INDIANA

CITY           SKY/WX    TMP DP  RH WIND       PRES   REMARKS
BEDFORD +      CLEAR     52  48  87 CALM      30.05R
BLOOMINGTON    CLEAR     52  47  83 E5        30.05R
6HR MIN TEMP:  48; 6HR MAX TEMP:  53;

MADISON *+     SUNNY     54  50  87 CALM      30.06S
NORTH VERNON + SUNNY     50  50 100 CALM      30.05R

$$



USA.gov is the U.S. government's official web portal to all federal, state and local government web resources and services.